C/2017 O1 ( ASASSN )

Japanese version
Home page
Updated on April 13, 2018

---------------------------------------------------------------------

* Profile

Discovery Date July 19, 2017
Magnitude 15.3 mag
Discoverer All-Sky Automated Survey for Supernovae (ASASSN)

* Pictures

* Orbital Elements

Epoch 2017 Oct. 14.0 TT = JDT 2458040.5
T 2017 Oct. 14.78530 TT                                 MPCW
q   1.4986853            (2000.0)            P               Q
z  +0.0023911      Peri.   20.90794     +0.72168400     -0.63351908
 +/-0.0000009      Node    25.80944     +0.50849164     +0.21172356
e   0.9964164      Incl.   39.84835     +0.46968975     +0.74419534
From 2667 observations 2017 July 19-2018 Mar. 25, mean residual 0".4.

* Finding Charts

* Magnitudes Graph

        m1 = 5.0 + 5 log d + 20.0 log r(t + 35)

---------------------------------------------------------------------

The orbital elements are published on M.P.E.C. 2018-F152.
The charts are made with StellaNavigator Ver.10 (AstroArts).
The magnitudes graphs are made with Comet for Windows.

---------------------------------------------------------------------

Copyright(C) Seiichi Yoshida (comet@aerith.net). All rights reserved.